Dades meteomassalio
Diari Summary for Abril 25, 2017 Units:  English    Metric   Both
« Previous Day
Next Day »
Diari Semanal Mensual Anual Personalitzat
  Maxima: Minima: Mijana:
Temperatura: TemperatureC °F 10.3 °F 16.5 °F
Rosada: DewpointC °F 6.1 °F 10.8 °F
Humitat: Humidity % 42 % 70 %
Velocitat del vent: WindSpeedKMH mph 0.0 mph 4.3 mph
Racha vent: WindSpeedGustKMH mph - -
Vent:- - ESE
Pressio: PressurehPa in 1004.6 in -
Pluja: 8.9 in    
Historical Graphs
 
 
Tabular Data for Abril 25, 2017
Time Temperature Dew Point Pressure Wind Wind Speed Wind Gust Humidity Rainfall Rate (Hourly) solar Conditions
TemperatureC °F DewpointC °F PressurehPa in Calm     Humidity % HourlyPrecipMM in SolarRadiationWatts/m^2 W/m2 Conditions
00:04 16.0 °F 6.7 °F 1012.4 in Calm     54 % 0.0 in 0.0 W/m2 CLR
00:09 15.8 °F 6.8 °F 1012.4 in Calm     55 % 0.0 in 0.0 W/m2 CLR
00:14 15.8 °F 7.0 °F 1012.4 in Calm     56 % 0.0 in 0.0 W/m2 CLR
00:19 15.7 °F 7.2 °F 1012.4 in Calm     57 % 0.0 in 0.0 W/m2 CLR
00:25 15.6 °F 6.8 °F 1012.4 in Calm     56 % 0.0 in 0.0 W/m2 CLR
00:30 15.7 °F 7.2 °F 1012.1 in Calm     57 % 0.0 in 0.0 W/m2 CLR
00:35 15.6 °F 7.3 °F 1012.4 in NE 5.6 mph 5.6 mph 58 % 0.0 in 0.0 W/m2 CLR
00:40 15.5 °F 7.5 °F 1012.1 in ENE 5.6 mph 5.6 mph 59 % 0.0 in 0.0 W/m2 CLR
00:45 15.5 °F 7.3 °F 1012.1 in Calm     58 % 0.0 in 0.0 W/m2 CLR
00:50 15.5 °F 7.8 °F 1012.1 in Calm     60 % 0.0 in 0.0 W/m2 CLR
00:55 15.4 °F 7.7 °F 1012.1 in ENE 3.7 mph 3.7 mph 60 % 0.0 in 0.0 W/m2 CLR
01:00 15.4 °F 7.7 °F 1012.1 in Calm     60 % 0.0 in 0.0 W/m2 CLR
01:05 15.5 °F 7.8 °F 1012.1 in Calm     60 % 0.0 in 0.0 W/m2 CLR
01:10 15.5 °F 8.0 °F 1012.1 in Calm     61 % 0.0 in 0.0 W/m2 CLR
01:15 15.4 °F 8.2 °F 1012.1 in Calm     62 % 0.0 in 0.0 W/m2 CLR
01:20 15.4 °F 8.2 °F 1012.1 in Calm     62 % 0.0 in 0.0 W/m2 CLR
01:25 15.3 °F 8.3 °F 1012.1 in Calm     63 % 0.0 in 0.0 W/m2 CLR
01:30 15.2 °F 8.7 °F 1012.1 in Calm     65 % 0.0 in 0.0 W/m2 CLR
01:35 15.1 °F 8.8 °F 1012.4 in Calm     66 % 0.0 in 0.0 W/m2 CLR
01:40 15.1 °F 8.9 °F 1012.1 in Calm     67 % 0.0 in 0.0 W/m2 CLR
01:45 14.9 °F 8.9 °F 1012.1 in Calm     67 % 0.0 in 0.0 W/m2 CLR
01:50 14.8 °F 9.0 °F 1012.1 in Calm     68 % 0.0 in 0.0 W/m2 CLR
01:55 14.7 °F 9.1 °F 1012.1 in Calm     69 % 0.0 in 0.0 W/m2 CLR
02:00 14.6 °F 9.2 °F 1012.1 in Calm     70 % 0.0 in 0.0 W/m2 CLR
02:05 14.5 °F 9.1 °F 1012.1 in ENE 7.4 mph 7.4 mph 70 % 0.0 in 0.0 W/m2 CLR
02:10 14.4 °F 9.2 °F 1011.7 in Calm     71 % 0.0 in 0.0 W/m2 CLR
02:15 14.4 °F 9.2 °F 1011.7 in NNE 1.9 mph 1.9 mph 71 % 0.0 in 0.0 W/m2 CLR
02:20 14.4 °F 9.2 °F 1011.7 in Calm     71 % 0.0 in 0.0 W/m2 CLR
02:25 14.4 °F 9.0 °F 1011.7 in Calm     70 % 0.0 in 0.0 W/m2 CLR
02:30 14.4 °F 9.0 °F 1011.7 in North 5.6 mph 5.6 mph 70 % 0.0 in 0.0 W/m2 CLR
02:35 14.3 °F 9.1 °F 1011.7 in Calm     71 % 0.0 in 0.0 W/m2 CLR
02:40 14.2 °F 9.1 °F 1011.7 in Calm     71 % 0.0 in 0.0 W/m2 CLR
02:45 14.3 °F 8.9 °F 1011.4 in Calm     70 % 0.0 in 0.0 W/m2 CLR
02:50 14.2 °F 8.8 °F 1011.4 in Calm     70 % 0.0 in 0.0 W/m2 CLR
02:55 14.2 °F 8.8 °F 1011.4 in Calm     70 % 0.0 in 0.0 W/m2 CLR
03:00 14.2 °F 8.8 °F 1011.4 in Calm     70 % 0.0 in 0.0 W/m2 CLR
03:05 14.2 °F 8.8 °F 1011.4 in Calm     70 % 0.0 in 0.0 W/m2 CLR
03:10 14.2 °F 8.8 °F 1011.1 in Calm     70 % 0.0 in 0.0 W/m2 CLR
03:15 14.1 °F 8.7 °F 1011.1 in Calm     70 % 0.0 in 0.0 W/m2 CLR
03:20 14.1 °F 8.7 °F 1011.1 in Calm     70 % 0.0 in 0.0 W/m2 CLR
03:25 14.0 °F 8.6 °F 1011.1 in Calm     70 % 0.0 in 0.0 W/m2 CLR
03:30 13.9 °F 8.5 °F 1011.1 in Calm     70 % 0.0 in 0.0 W/m2 CLR
03:35 14.0 °F 8.4 °F 1011.1 in Calm     69 % 0.0 in 0.0 W/m2 CLR
03:40 14.2 °F 8.3 °F 1011.1 in Calm     68 % 0.0 in 0.0 W/m2 CLR
03:45 14.2 °F 8.2 °F 1011.1 in Calm     67 % 0.0 in 0.0 W/m2 CLR
03:50 14.3 °F 8.3 °F 1010.7 in Calm     67 % 0.0 in 0.0 W/m2 CLR
03:55 14.3 °F 8.4 °F 1010.7 in Calm     68 % 0.0 in 0.0 W/m2 CLR
04:00 14.2 °F 8.4 °F 1010.7 in Calm     68 % 0.0 in 0.0 W/m2 CLR
04:05 14.2 °F 8.3 °F 1010.7 in Calm     68 % 0.0 in 0.0 W/m2 CLR
04:10 14.1 °F 8.3 °F 1010.7 in Calm     68 % 0.0 in 0.0 W/m2 CLR
04:15 14.1 °F 8.2 °F 1010.7 in Calm     68 % 0.0 in 0.0 W/m2 CLR
04:20 14.0 °F 8.2 °F 1010.7 in Calm     68 % 0.0 in 0.0 W/m2 CLR
04:25 13.9 °F 8.1 °F 1010.7 in Calm     68 % 0.0 in 0.0 W/m2 CLR
04:30 13.8 °F 8.0 °F 1010.7 in Calm     68 % 0.0 in 0.0 W/m2 CLR
04:35 13.8 °F 8.2 °F 1010.4 in Calm     69 % 0.0 in 0.0 W/m2 CLR
04:40 13.7 °F 8.1 °F 1010.4 in Calm     69 % 0.0 in 0.0 W/m2 CLR
04:45 13.6 °F 8.0 °F 1010.4 in Calm     69 % 0.0 in 0.0 W/m2 CLR
04:50 13.6 °F 8.0 °F 1010.4 in Calm     69 % 0.0 in 0.0 W/m2 CLR
04:55 13.5 °F 8.1 °F 1010.4 in Calm     70 % 0.0 in 0.0 W/m2 CLR
05:00 13.5 °F 8.1 °F 1010.4 in Calm     70 % 0.0 in 0.0 W/m2 CLR
05:05 13.4 °F 8.0 °F 1010.4 in Calm     70 % 0.0 in 0.0 W/m2 CLR
05:10 13.3 °F 7.9 °F 1010.4 in Calm     70 % 0.0 in 0.0 W/m2 CLR
05:11 13.3 °F 7.9 °F 1010.4 in Calm     70 % 0.0 in 0.0 W/m2 CLR
05:16 13.2 °F 8.0 °F 1010.0 in Calm     71 % 0.0 in 0.0 W/m2 CLR
05:21 13.1 °F 8.2 °F 1010.0 in Calm     72 % 0.0 in 0.0 W/m2 CLR
05:26 13.0 °F 7.9 °F 1010.0 in Calm     71 % 0.0 in 0.0 W/m2 CLR
05:28 12.9 °F 7.8 °F 1010.0 in Calm     71 % 0.0 in 0.0 W/m2 CLR
05:33 12.8 °F 7.8 °F 1010.0 in Calm     72 % 0.0 in 0.0 W/m2 CLR
05:38 12.6 °F 7.7 °F 1010.0 in Calm     72 % 0.0 in 0.0 W/m2 CLR
05:43 12.4 °F 7.7 °F 1010.0 in Calm     73 % 0.0 in 0.0 W/m2 CLR
05:48 12.3 °F 7.8 °F 1010.0 in Calm     74 % 0.0 in 0.0 W/m2 CLR
05:53 12.3 °F 7.8 °F 1010.0 in Calm     74 % 0.0 in 0.0 W/m2 CLR
05:58 12.1 °F 7.3 °F 1010.0 in Calm     73 % 0.0 in 0.0 W/m2 CLR
06:03 11.8 °F 7.3 °F 1010.0 in Calm     74 % 0.0 in 0.0 W/m2 CLR
06:08 11.7 °F 7.2 °F 1010.0 in Calm     74 % 0.0 in 0.0 W/m2 CLR
06:13 11.5 °F 7.0 °F 1010.0 in Calm     74 % 0.0 in 0.0 W/m2 CLR
06:18 11.3 °F 7.3 °F 1010.0 in Calm     76 % 0.0 in 0.0 W/m2 CLR
06:23 11.2 °F 7.1 °F 1010.0 in Calm     76 % 0.0 in 0.0 W/m2 CLR
06:28 11.1 °F 7.2 °F 1010.0 in Calm     77 % 0.0 in 0.0 W/m2 CLR
06:33 10.9 °F 6.9 °F 1010.0 in Calm     76 % 0.0 in 0.0 W/m2 CLR
06:38 10.7 °F 6.8 °F 1010.0 in Calm     77 % 0.0 in 0.0 W/m2 CLR
06:44 10.6 °F 6.7 °F 1010.0 in Calm     77 % 0.0 in 0.0 W/m2 CLR
06:49 10.4 °F 6.6 °F 1010.4 in Calm     77 % 0.0 in 0.0 W/m2 CLR
06:54 10.5 °F 6.8 °F 1010.4 in Calm     78 % 0.0 in 0.0 W/m2 CLR
06:59 10.5 °F 6.8 °F 1010.4 in Calm     78 % 0.0 in 0.0 W/m2 CLR
07:04 10.5 °F 6.6 °F 1010.4 in Calm     77 % 0.0 in 0.0 W/m2 OVC
07:09 10.3 °F 6.5 °F 1010.4 in Calm     77 % 0.0 in 5.0 W/m2 OVC
07:14 10.3 °F 6.6 °F 1010.4 in Calm     78 % 0.0 in 7.0 W/m2 BKN
07:19 10.3 °F 6.7 °F 1010.4 in Calm     78 % 0.0 in 11.0 W/m2 BKN
07:24 10.3 °F 6.5 °F 1010.7 in Calm     77 % 0.0 in 18.0 W/m2 BKN
07:29 10.4 °F 6.8 °F 1010.4 in Calm     78 % 0.0 in 25.0 W/m2 BKN
07:34 10.4 °F 6.6 °F 1010.7 in Calm     77 % 0.0 in 28.0 W/m2 BKN
07:39 10.3 °F 6.2 °F 1010.7 in Calm     76 % 0.0 in 35.0 W/m2 BKN
07:44 10.3 °F 6.2 °F 1010.7 in Calm     76 % 0.0 in 47.0 W/m2 SCT
07:49 10.3 °F 6.2 °F 1010.7 in SW 5.6 mph 5.6 mph 76 % 0.0 in 60.0 W/m2 SCT
07:54 10.3 °F 6.3 °F 1010.7 in Calm     76 % 0.0 in 46.0 W/m2 SCT
07:59 10.4 °F 6.4 °F 1010.4 in Calm     76 % 0.0 in 39.0 W/m2 BKN
08:04 10.6 °F 6.3 °F 1010.7 in Calm     75 % 0.0 in 40.0 W/m2 BKN
08:09 10.6 °F 6.3 °F 1010.4 in Calm     75 % 0.0 in 44.0 W/m2 BKN
08:14 10.7 °F 6.4 °F 1010.4 in Calm     75 % 0.0 in 62.0 W/m2 SCT
08:19 10.8 °F 6.6 °F 1010.7 in Calm     75 % 0.0 in 70.0 W/m2 SCT
08:24 11.1 °F 6.8 °F 1010.7 in Calm     75 % 0.0 in 141.0 W/m2 FEW
08:29 11.3 °F 6.9 °F 1010.4 in Calm     74 % 0.0 in 160.0 W/m2 CLR
08:34 11.8 °F 7.3 °F 1010.4 in Calm     74 % 0.0 in 98.0 W/m2 CLR
08:39 12.2 °F 7.1 °F 1010.4 in Calm     71 % 0.0 in 195.0 W/m2 CLR
08:44 12.6 °F 7.2 °F 1010.4 in Calm     70 % 0.0 in 199.0 W/m2 CLR
08:49 12.9 °F 7.1 °F 1010.4 in Calm     68 % 0.0 in 213.0 W/m2 CLR
08:54 13.2 °F 7.4 °F 1010.4 in Calm     68 % 0.0 in 232.0 W/m2 CLR
08:59 13.6 °F 7.6 °F 1010.4 in Calm     67 % 0.0 in 250.0 W/m2 CLR
09:04 13.8 °F 7.6 °F 1010.4 in Calm     66 % 0.0 in 269.0 W/m2 CLR
09:09 14.2 °F 7.9 °F 1010.4 in Calm     66 % 0.0 in 301.0 W/m2 CLR
09:14 14.6 °F 8.1 °F 1010.4 in Calm     65 % 0.0 in 225.0 W/m2 CLR
09:19 15.1 °F 7.9 °F 1010.0 in Calm     62 % 0.0 in 151.0 W/m2 CLR
09:24 15.5 °F 8.0 °F 1010.0 in Calm     61 % 0.0 in 285.0 W/m2 CLR
09:29 15.8 °F 8.3 °F 1010.0 in Calm     61 % 0.0 in 120.0 W/m2 CLR
09:34 15.8 °F 8.1 °F 1009.7 in Calm     60 % 0.0 in 76.0 W/m2 CLR
09:39 15.7 °F 7.7 °F 1009.7 in ENE 5.6 mph 5.6 mph 59 % 0.0 in 111.0 W/m2 CLR
09:44 15.5 °F 7.3 °F 1009.7 in East 5.6 mph 5.6 mph 58 % 0.0 in 137.0 W/m2 CLR
09:49 15.7 °F 6.9 °F 1009.7 in SE 5.6 mph 5.6 mph 56 % 0.0 in 350.0 W/m2 CLR
09:54 15.9 °F 7.2 °F 1009.7 in SSE 5.6 mph 5.6 mph 56 % 0.0 in 422.0 W/m2 CLR
09:59 16.5 °F 7.2 °F 1009.7 in South 5.6 mph   54 % 0.0 in 462.0 W/m2 CLR
10:04 16.8 °F 6.6 °F 1009.4 in Calm     51 % 0.0 in 327.0 W/m2 CLR
10:09 17.2 °F 6.7 °F 1009.4 in Calm     50 % 0.0 in 278.0 W/m2 CLR
10:14 17.3 °F 6.5 °F 1009.4 in Calm     49 % 0.0 in 260.0 W/m2 CLR
10:19 17.5 °F 6.1 °F 1009.4 in East 5.6 mph 5.6 mph 47 % 0.0 in 271.0 W/m2 CLR
10:24 17.7 °F 6.6 °F 1009.4 in Calm     48 % 0.0 in 281.0 W/m2 CLR
10:29 17.9 °F 6.7 °F 1009.4 in Calm     48 % 0.0 in 229.0 W/m2 CLR
10:34 18.1 °F 7.5 °F 1009.4 in Calm     50 % 0.0 in 223.0 W/m2 CLR
10:39 18.3 °F 7.4 °F 1009.4 in Calm     49 % 0.0 in 283.0 W/m2 CLR
10:44 18.4 °F 7.2 °F 1009.4 in Calm     48 % 0.0 in 304.0 W/m2 CLR
10:49 18.5 °F 6.7 °F 1009.4 in Calm     46 % 0.0 in 267.0 W/m2 CLR
10:54 18.7 °F 6.8 °F 1009.4 in North 3.7 mph 3.7 mph 46 % 0.0 in 246.0 W/m2 CLR
10:59 18.8 °F 6.3 °F 1009.4 in North 5.6 mph 5.6 mph 44 % 0.0 in 188.0 W/m2 CLR
11:04 19.1 °F 6.2 °F 1009.4 in Calm     43 % 0.0 in 193.0 W/m2 CLR
11:09 19.2 °F 6.7 °F 1009.4 in Calm     44 % 0.0 in 311.0 W/m2 CLR
11:14 19.8 °F 7.6 °F 1009.4 in Calm     45 % 0.0 in 724.0 W/m2 CLR
11:19 20.5 °F 7.2 °F 1009.4 in NNE 1.6 mph 1.6 mph 42 % 0.0 in 582.0 W/m2 CLR
11:24 20.9 °F 7.9 °F 1009.0 in Calm     43 % 0.0 in 512.0 W/m2 CLR
11:29 21.0 °F 7.9 °F 1009.0 in ENE 9.3 mph 9.3 mph 43 % 0.0 in 424.0 W/m2 CLR
11:34 20.9 °F 8.5 °F 1009.0 in ENE 9.3 mph 9.3 mph 45 % 0.0 in 374.0 W/m2 CLR
11:39 20.8 °F 9.1 °F 1009.0 in ENE 13.0 mph 13.0 mph 47 % 0.0 in 693.0 W/m2 CLR
11:44 21.1 °F 9.3 °F 1009.0 in NE 14.8 mph 14.8 mph 47 % 0.0 in 872.0 W/m2 CLR
11:49 21.2 °F 9.8 °F 1008.7 in ENE 13.0 mph 13.0 mph 48 % 0.0 in 868.0 W/m2 CLR
11:54 21.2 °F 9.8 °F 1008.7 in ENE 11.1 mph 11.1 mph 48 % 0.0 in 863.0 W/m2 CLR
11:59 21.2 °F 9.7 °F 1008.7 in East 13.0 mph 13.0 mph 48 % 0.0 in 404.0 W/m2 CLR
12:04 21.2 °F 9.4 °F 1008.7 in NE 7.4 mph 7.4 mph 47 % 0.0 in 360.0 W/m2 CLR
12:09 21.4 °F 10.0 °F 1008.7 in ENE 14.8 mph 14.8 mph 48 % 0.0 in 865.0 W/m2 CLR
12:14 21.9 °F 10.1 °F 1008.4 in NE 11.1 mph 11.1 mph 47 % 0.0 in 830.0 W/m2 CLR
12:19 22.4 °F 10.5 °F 1008.7 in NE 9.7 mph 9.7 mph 47 % 0.0 in 870.0 W/m2 CLR
12:24 22.7 °F 10.8 °F 1008.4 in NE 16.7 mph 16.7 mph 47 % 0.0 in 891.0 W/m2 CLR
12:29 22.6 °F 10.7 °F 1008.4 in ESE 11.1 mph 11.1 mph 47 % 0.0 in 858.0 W/m2 CLR
12:34 22.5 °F 10.6 °F 1008.4 in NE 14.8 mph 14.8 mph 47 % 0.0 in 846.0 W/m2 CLR
12:39 22.8 °F 10.9 °F 1008.4 in ENE 9.7 mph 9.7 mph 47 % 0.0 in 861.0 W/m2 CLR
12:44 23.1 °F 10.8 °F 1008.0 in ENE 14.8 mph 14.8 mph 46 % 0.0 in 909.0 W/m2 CLR
12:49 23.2 °F 10.6 °F 1008.0 in NE 6.4 mph 6.4 mph 45 % 0.0 in 1014.0 W/m2 CLR
12:54 23.3 °F 10.7 °F 1007.7 in East 9.3 mph 9.3 mph 45 % 0.0 in 374.0 W/m2 CLR
12:59 23.1 °F 10.1 °F 1007.7 in East 5.6 mph 5.6 mph 44 % 0.0 in 341.0 W/m2 CLR
13:04 22.7 °F 10.2 °F 1007.7 in East 11.1 mph 11.1 mph 45 % 0.0 in 243.0 W/m2 CLR
13:09 22.4 °F 10.6 °F 1007.7 in SE 9.3 mph 9.3 mph 47 % 0.0 in 283.0 W/m2 CLR
13:14 22.3 °F 10.4 °F 1007.7 in ESE 13.0 mph 13.0 mph 47 % 0.0 in 283.0 W/m2 CLR
13:19 22.6 °F 11.0 °F 1007.7 in East 13.0 mph 13.0 mph 48 % 0.0 in 928.0 W/m2 CLR
13:24 22.8 °F 11.2 °F 1007.7 in ESE 11.1 mph 11.1 mph 48 % 0.0 in 960.0 W/m2 CLR
13:29 22.9 °F 11.3 °F 1007.7 in ESE 14.8 mph 14.8 mph 48 % 0.0 in 1039.0 W/m2 CLR
13:34 23.0 °F 11.1 °F 1007.3 in ENE 9.3 mph 9.3 mph 47 % 0.0 in 1039.0 W/m2 CLR
13:39 23.1 °F 11.5 °F 1007.3 in ENE 11.1 mph 11.1 mph 48 % 0.0 in 1039.0 W/m2 CLR
13:40 23.2 °F 11.2 °F 1007.3 in ENE 11.1 mph 11.1 mph 47 % 0.0 in 1039.0 W/m2 CLR
13:45 23.2 °F 10.6 °F 1007.0 in SE 11.1 mph 11.1 mph 45 % 0.0 in 563.0 W/m2 CLR
13:50 23.1 °F 10.8 °F 1007.0 in ESE 9.7 mph 10.5 mph 46 % 0.0 in 366.0 W/m2 CLR
13:55 22.8 °F 11.2 °F 1007.0 in East 14.5 mph 14.5 mph 48 % 0.0 in 209.0 W/m2 CLR
14:01 22.6 °F 11.1 °F 1007.0 in ENE 11.1 mph 11.1 mph 48 % 0.0 in 134.0 W/m2 CLR
14:06 22.4 °F 10.8 °F 1007.3 in ENE 9.7 mph 9.7 mph 48 % 0.0 in 44.0 W/m2 CLR
14:11 22.2 °F 12.2 °F 1007.7 in ENE 14.8 mph 14.8 mph 53 % 0.0 in 47.0 W/m2 SCT
14:16 20.4 °F 13.6 °F 1008.0 in ENE 22.2 mph 22.2 mph 65 % 2.0 in 127.0 W/m2 RA
14:21 18.5 °F 14.4 °F 1007.3 in ENE 11.3 mph 11.3 mph 77 % 4.1 in 225.0 W/m2 RA
14:26 18.4 °F 15.4 °F 1007.3 in ENE 14.5 mph 14.5 mph 83 % 4.3 in 967.0 W/m2 RA
14:31 18.8 °F 15.8 °F 1007.3 in ENE 13.0 mph 13.0 mph 83 % 4.3 in 541.0 W/m2 CLR
14:36 19.1 °F 15.7 °F 1007.3 in ENE 7.4 mph 7.4 mph 81 % 4.3 in 689.0 W/m2 CLR
14:41 19.3 °F 15.3 °F 1007.0 in ENE 18.5 mph 18.5 mph 78 % 4.3 in 617.0 W/m2 CLR
14:46 19.5 °F 15.3 °F 1007.0 in ENE 18.5 mph 18.5 mph 77 % 4.3 in 995.0 W/m2 CLR
14:51 19.7 °F 15.6 °F 1007.0 in NE 14.8 mph 14.8 mph 77 % 4.3 in 858.0 W/m2 CLR
14:56 19.8 °F 15.1 °F 1006.7 in NE 7.4 mph 7.4 mph 74 % 4.3 in 853.0 W/m2 CLR
15:01 19.8 °F 14.8 °F 1006.7 in NE 14.8 mph 14.8 mph 73 % 4.3 in 837.0 W/m2 CLR
15:06 19.8 °F 15.0 °F 1006.7 in ENE 13.0 mph 13.0 mph 74 % 4.3 in 846.0 W/m2 CLR
15:11 20.1 °F 15.6 °F 1006.7 in NE 9.3 mph 9.3 mph 75 % 4.3 in 918.0 W/m2 CLR
15:16 20.4 °F 15.6 °F 1006.7 in ENE 9.3 mph 9.3 mph 74 % 2.0 in 828.0 W/m2 CLR
15:21 20.4 °F 15.0 °F 1006.3 in East 7.4 mph 7.4 mph 71 % 0.3 in 533.0 W/m2 CLR
15:26 20.3 °F 14.9 °F 1006.3 in ENE 8.0 mph 8.0 mph 71 % 0.0 in 531.0 W/m2 CLR
15:31 20.4 °F 15.2 °F 1006.3 in Calm     72 % 0.0 in 925.0 W/m2 CLR
15:36 20.6 °F 14.7 °F 1006.3 in NE 11.3 mph 11.3 mph 69 % 0.0 in 269.0 W/m2 CLR
15:41 20.4 °F 14.3 °F 1006.3 in NE 13.0 mph 13.0 mph 68 % 0.0 in 186.0 W/m2 CLR
15:46 20.2 °F 13.9 °F 1006.3 in NE 16.7 mph 16.7 mph 67 % 0.0 in 116.0 W/m2 CLR
15:51 20.0 °F 13.7 °F 1006.7 in North 5.6 mph 5.6 mph 67 % 0.0 in 77.0 W/m2 CLR
15:56 19.9 °F 14.1 °F 1006.7 in NNE 14.8 mph 14.8 mph 69 % 0.0 in 91.0 W/m2 CLR
16:01 19.7 °F 14.3 °F 1007.0 in ENE 11.1 mph 11.1 mph 71 % 0.0 in 146.0 W/m2 CLR
16:06 19.4 °F 14.9 °F 1006.7 in NE 11.3 mph 11.3 mph 75 % 0.5 in 258.0 W/m2 RA
16:11 19.2 °F 15.2 °F 1006.3 in Calm     78 % 0.5 in 237.0 W/m2 CLR
16:16 19.1 °F 15.3 °F 1006.0 in Calm     79 % 0.5 in 248.0 W/m2 CLR
16:21 19.1 °F 15.3 °F 1006.0 in ENE 6.4 mph 6.4 mph 79 % 0.5 in 722.0 W/m2 CLR
16:26 19.2 °F 14.9 °F 1005.6 in Calm     76 % 0.5 in 575.0 W/m2 CLR
16:31 19.7 °F 15.9 °F 1006.0 in NE 1.9 mph 1.9 mph 79 % 0.5 in 504.0 W/m2 CLR
16:36 19.9 °F 16.0 °F 1006.0 in Calm     78 % 0.5 in 538.0 W/m2 CLR
16:41 20.3 °F 15.6 °F 1005.6 in SE 7.4 mph 7.4 mph 74 % 0.5 in 703.0 W/m2 CLR
16:46 20.1 °F 14.6 °F 1005.6 in ESE 20.9 mph 20.9 mph 71 % 0.5 in 659.0 W/m2 CLR
16:51 19.8 °F 14.4 °F 1005.6 in SE 18.5 mph 18.5 mph 71 % 0.5 in 640.0 W/m2 CLR
16:56 19.8 °F 14.4 °F 1005.3 in SE 13.0 mph 13.0 mph 71 % 0.5 in 622.0 W/m2 CLR
17:01 19.9 °F 14.3 °F 1005.3 in SE 18.5 mph 18.5 mph 70 % 0.5 in 599.0 W/m2 CLR
17:06 20.1 °F 14.4 °F 1005.0 in SE 18.5 mph 18.5 mph 70 % 0.0 in 243.0 W/m2 CLR
17:11 20.2 °F 14.7 °F 1005.0 in SSE 9.7 mph 9.7 mph 71 % 0.0 in 582.0 W/m2 CLR
17:16 20.2 °F 14.5 °F 1005.0 in SE 16.7 mph 16.7 mph 70 % 0.0 in 633.0 W/m2 CLR
17:21 20.1 °F 14.4 °F 1005.0 in SE 13.0 mph 13.0 mph 70 % 0.0 in 475.0 W/m2 CLR
17:26 20.1 °F 14.4 °F 1005.0 in ESE 7.4 mph 7.4 mph 70 % 0.0 in 236.0 W/m2 CLR
17:31 20.1 °F 14.0 °F 1004.6 in SE 16.7 mph 16.7 mph 68 % 0.0 in 381.0 W/m2 CLR
17:36 20.1 °F 14.4 °F 1004.6 in ESE 14.5 mph 14.5 mph 70 % 0.0 in 471.0 W/m2 CLR
17:41 20.2 °F 14.5 °F 1004.6 in SSE 14.8 mph 14.8 mph 70 % 0.0 in 316.0 W/m2 CLR
17:46 19.9 °F 14.5 °F 1004.6 in South 22.2 mph 22.2 mph 71 % 0.0 in 232.0 W/m2 CLR
17:51 19.6 °F 14.8 °F 1004.6 in South 14.8 mph 14.8 mph 74 % 0.0 in 179.0 W/m2 CLR
17:56 19.4 °F 14.9 °F 1004.6 in South 13.0 mph 13.0 mph 75 % 0.0 in 125.0 W/m2 CLR
18:01 19.3 °F 15.0 °F 1004.6 in South 11.1 mph 11.1 mph 76 % 0.0 in 83.0 W/m2 CLR
18:06 19.3 °F 15.0 °F 1005.0 in South 9.3 mph 9.3 mph 76 % 0.0 in 54.0 W/m2 FEW
18:11 19.2 °F 15.1 °F 1005.0 in South 11.1 mph 11.1 mph 77 % 0.0 in 32.0 W/m2 SCT
18:16 19.1 °F 14.9 °F 1005.3 in ENE 9.3 mph 9.3 mph 77 % 0.0 in 14.0 W/m2 BKN
18:21 18.8 °F 14.9 °F 1005.6 in ENE 8.0 mph 8.0 mph 78 % 0.3 in 16.0 W/m2 RA
18:26 18.4 °F 15.3 °F 1006.0 in ENE 18.5 mph 18.5 mph 82 % 1.3 in 88.0 W/m2 RA
18:31 18.0 °F 15.3 °F 1004.6 in ESE 8.0 mph 8.0 mph 84 % 2.8 in 206.0 W/m2 RA
18:33 17.9 °F 15.3 °F 1004.6 in SE 7.4 mph 7.4 mph 85 % 3.0 in 221.0 W/m2 RA
18:38 17.8 °F 15.7 °F 1004.6 in Calm     87 % 3.0 in 418.0 W/m2 CLR
18:43 18.0 °F 16.0 °F 1004.6 in South 9.7 mph 9.7 mph 88 % 3.0 in 336.0 W/m2 CLR
18:48 17.8 °F 15.3 °F 1004.6 in Calm     85 % 3.0 in 204.0 W/m2 CLR
18:53 18.0 °F 15.4 °F 1004.6 in Calm     85 % 3.0 in 294.0 W/m2 CLR
18:58 18.1 °F 15.4 °F 1004.6 in Calm     84 % 3.0 in 334.0 W/m2 CLR
19:03 18.3 °F 15.5 °F 1004.6 in Calm     84 % 3.0 in 330.0 W/m2 CLR
19:08 18.4 °F 15.5 °F 1004.6 in Calm     83 % 3.0 in 248.0 W/m2 CLR
19:13 18.6 °F 15.6 °F 1004.6 in Calm     83 % 3.0 in 185.0 W/m2 CLR
19:18 18.4 °F 15.5 °F 1004.6 in Calm     83 % 3.0 in 86.0 W/m2 CLR
19:23 18.3 °F 15.8 °F 1004.6 in Calm     85 % 2.5 in 79.0 W/m2 CLR
19:24 18.3 °F 15.7 °F 1004.6 in Calm     85 % 2.5 in 72.0 W/m2 CLR
19:29 18.1 °F 15.7 °F 1004.6 in Calm     86 % 0.8 in 70.0 W/m2 FEW
19:34 18.0 °F 15.8 °F 1004.6 in Calm     87 % 0.0 in 100.0 W/m2 FEW
19:39 17.9 °F 15.7 °F 1004.6 in Calm     87 % 0.0 in 95.0 W/m2 CLR
19:44 17.9 °F 15.7 °F 1005.0 in Calm     87 % 0.0 in 90.0 W/m2 CLR
19:49 17.9 °F 15.7 °F 1005.0 in Calm     87 % 0.0 in 84.0 W/m2 CLR
19:54 17.9 °F 15.9 °F 1005.0 in NE 6.4 mph 6.4 mph 88 % 0.0 in 97.0 W/m2 CLR
19:59 17.9 °F 15.9 °F 1005.0 in NE 7.4 mph 7.6 mph 88 % 0.0 in 79.0 W/m2 CLR
20:04 17.7 °F 15.7 °F 1005.0 in Calm     88 % 0.0 in 42.0 W/m2 BKN
20:09 17.6 °F 15.6 °F 1005.3 in Calm     88 % 0.0 in 47.0 W/m2 SCT
20:14 17.4 °F 15.4 °F 1005.0 in NE 11.1 mph 11.1 mph 88 % 0.0 in 16.0 W/m2 BKN
20:19 17.2 °F 15.4 °F 1005.0 in NE 11.1 mph 11.1 mph 89 % 0.0 in 12.0 W/m2 BKN
20:24 17.1 °F 15.3 °F 1005.3 in NE 5.6 mph 5.6 mph 89 % 0.0 in 9.0 W/m2 BKN
20:29 17.0 °F 15.3 °F 1005.0 in NE 9.3 mph 9.3 mph 90 % 0.0 in 7.0 W/m2 BKN
20:34 16.8 °F 15.1 °F 1005.3 in Calm     90 % 0.0 in 5.0 W/m2 OVC
20:39 16.6 °F 14.9 °F 1005.3 in Calm     90 % 0.0 in 0.0 W/m2 OVC
20:44 16.3 °F 14.4 °F 1005.3 in ENE 6.4 mph 6.4 mph 89 % 0.0 in 0.0 W/m2 OVC
20:49 16.1 °F 14.2 °F 1005.3 in Calm     89 % 0.0 in 0.0 W/m2 OVC
20:54 15.9 °F 14.1 °F 1005.3 in Calm     89 % 0.0 in 0.0 W/m2 OVC
21:00 15.7 °F 13.9 °F 1005.3 in Calm     89 % 0.0 in 0.0 W/m2 OVC
21:05 15.7 °F 14.1 °F 1005.3 in Calm     90 % 0.0 in 0.0 W/m2 CLR
21:10 15.6 °F 13.9 °F 1005.6 in Calm     90 % 0.0 in 0.0 W/m2 CLR
21:15 15.5 °F 13.9 °F 1005.6 in Calm     90 % 0.0 in 0.0 W/m2 CLR
21:20 15.5 °F 13.9 °F 1006.0 in Calm     90 % 0.0 in 0.0 W/m2 CLR
21:25 15.5 °F 13.9 °F 1006.0 in Calm     90 % 0.0 in 0.0 W/m2 CLR
21:30 15.5 °F 13.9 °F 1006.3 in Calm     90 % 0.5 in 0.0 W/m2 RA
21:35 15.6 °F 14.1 °F 1006.7 in Calm     91 % 0.5 in 0.0 W/m2
21:40 15.6 °F 14.1 °F 1006.3 in Calm     91 % 0.8 in 0.0 W/m2 RA
21:45 15.6 °F 14.2 °F 1006.7 in Calm     91 % 1.0 in 0.0 W/m2 RA
21:50 15.6 °F 14.2 °F 1006.7 in Calm     91 % 1.0 in 0.0 W/m2 CLR
21:55 15.5 °F 14.1 °F 1006.7 in Calm     91 % 1.0 in 0.0 W/m2 CLR
22:00 15.4 °F 13.9 °F 1006.3 in Calm     91 % 1.0 in 0.0 W/m2 CLR
22:05 15.4 °F 13.9 °F 1006.7 in Calm     91 % 1.0 in 0.0 W/m2 CLR
22:10 15.4 °F 13.9 °F 1006.7 in Calm     91 % 1.3 in 0.0 W/m2 RA
22:15 15.3 °F 13.8 °F 1006.7 in Calm     91 % 1.3 in 0.0 W/m2 CLR
22:20 15.2 °F 13.8 °F 1006.7 in Calm     91 % 1.3 in 0.0 W/m2 CLR
22:25 15.3 °F 14.0 °F 1006.3 in Calm     92 % 1.3 in 0.0 W/m2 CLR
22:30 15.3 °F 13.8 °F 1006.0 in Calm     91 % 0.5 in 0.0 W/m2 CLR
22:35 15.2 °F 13.8 °F 1006.0 in Calm     91 % 0.5 in 0.0 W/m2 CLR
22:40 15.2 °F 13.8 °F 1005.6 in Calm     91 % 0.5 in 0.0 W/m2 CLR
22:45 15.2 °F 13.8 °F 1006.3 in South 13.0 mph 13.0 mph 91 % 0.3 in 0.0 W/m2 CLR
22:50 15.2 °F 13.8 °F 1006.3 in SW 6.4 mph 6.4 mph 91 % 0.3 in 0.0 W/m2 CLR
22:55 15.2 °F 13.8 °F 1006.7 in WSW 6.4 mph 6.4 mph 91 % 0.3 in 0.0 W/m2 CLR
23:00 15.3 °F 13.8 °F 1006.7 in WSW 14.8 mph 14.8 mph 91 % 0.3 in 0.0 W/m2 CLR
23:05 15.3 °F 13.9 °F 1006.7 in WSW 3.7 mph   91 % 0.3 in 0.0 W/m2 CLR
23:10 15.3 °F 13.9 °F 1006.3 in WSW 13.0 mph 13.0 mph 91 % 0.0 in 0.0 W/m2 CLR
23:15 15.4 °F 13.9 °F 1006.3 in SW 9.3 mph 9.3 mph 91 % 0.0 in 0.0 W/m2 CLR
23:20 15.4 °F 14.0 °F 1006.7 in West 7.4 mph 7.4 mph 91 % 0.0 in 0.0 W/m2 CLR
23:25 15.5 °F 14.1 °F 1006.7 in West 9.3 mph 9.3 mph 91 % 0.0 in 0.0 W/m2 CLR
23:30 15.6 °F 14.1 °F 1006.7 in West 7.4 mph 7.4 mph 91 % 0.0 in 0.0 W/m2 CLR
23:35 15.6 °F 13.9 °F 1006.7 in Calm     90 % 0.0 in 0.0 W/m2 CLR
23:40 15.6 °F 13.9 °F 1006.7 in West 7.4 mph 7.4 mph 90 % 0.0 in 0.0 W/m2 CLR
23:45 15.6 °F 14.0 °F 1006.3 in Calm     90 % 0.0 in 0.0 W/m2 CLR
23:50 15.6 °F 13.9 °F 1006.3 in Calm     90 % 0.0 in 0.0 W/m2 CLR
23:55 15.6 °F 14.1 °F 1006.3 in Calm     91 % 0.0 in 0.0 W/m2 CLR
Lo Temps de Massalio
Compliments of Weather Underground - 1.25 mb